AAL1201 KLAS-KPHL

Flight info

Callsign AAL1201
Flight time 4h 12m
Altitude 33000
Route HOOVR8 DVC J197 HGO J24 MCI J80 TWAIN/N0460F350 J80 VHP ROD J152 HAR BOJID4
Aircraft B722/M-SDFILTW/C

Departure

Time 2026-05-04 21:08
Airport Harry Reid International Airport (KLAS)

Arrival

Time 2026-05-05 01:21
Airport Philadelphia International Airport (KPHL)
Time Latitude Longitude Altitude Speed Heading
2026-05-04 19:45 36.08077 -115.13686 2097 ft 0 kts 45°
2026-05-04 20:58 36.08073 -115.13692 2097 ft 2 kts 45°
2026-05-04 20:59 36.08062 -115.13705 2097 ft 2 kts 45°
2026-05-04 20:59 36.08052 -115.13717 2097 ft 2 kts 45°
2026-05-04 20:59 36.08042 -115.13730 2097 ft 2 kts 45°
2026-05-04 20:59 36.08032 -115.13743 2097 ft 2 kts 45°
2026-05-04 21:00 36.08021 -115.13756 2097 ft 2 kts 45°
2026-05-04 21:00 36.08015 -115.13764 2097 ft 0 kts 45°
2026-05-04 21:02 36.08015 -115.13763 2097 ft 0 kts 45°
2026-05-04 21:02 36.08017 -115.13759 2097 ft 2 kts 71°
2026-05-04 21:02 36.08004 -115.13729 2097 ft 7 kts 128°
2026-05-04 21:03 36.07962 -115.13674 2097 ft 9 kts 132°
2026-05-04 21:03 36.07915 -115.13617 2095 ft 10 kts 135°
2026-05-04 21:03 36.07863 -115.13553 2095 ft 11 kts 135°
2026-05-04 21:03 36.07829 -115.13467 2094 ft 12 kts 91°
2026-05-04 21:04 36.07828 -115.13359 2092 ft 9 kts 90°
2026-05-04 21:04 36.07828 -115.13271 2091 ft 12 kts 90°
2026-05-04 21:04 36.07828 -115.13152 2087 ft 16 kts 90°
2026-05-04 21:04 36.07828 -115.12996 2079 ft 21 kts 89°
2026-05-04 21:05 36.07827 -115.12799 2072 ft 25 kts 91°
2026-05-04 21:05 36.07828 -115.12602 2065 ft 22 kts 89°
2026-05-04 21:05 36.07829 -115.12400 2060 ft 23 kts 90°
2026-05-04 21:05 36.07821 -115.12263 2056 ft 16 kts 111°
2026-05-04 21:06 36.07761 -115.12162 2053 ft 0 kts 133°
2026-05-04 21:06 36.07761 -115.12161 2053 ft 2 kts 134°
2026-05-04 21:06 36.07721 -115.12129 2051 ft 12 kts 167°
2026-05-04 21:06 36.07651 -115.12126 2051 ft 3 kts 203°
2026-05-04 21:07 36.07645 -115.12148 2052 ft 11 kts 264°
2026-05-04 21:07 36.07642 -115.12472 2060 ft 64 kts 269°
2026-05-04 21:07 36.07641 -115.13213 2089 ft 107 kts 270°
2026-05-04 21:07 36.07641 -115.14305 2100 ft 146 kts 269°
2026-05-04 21:08 36.07628 -115.15195 2143 ft 164 kts 267°
2026-05-04 21:08 36.07676 -115.16624 2607 ft 166 kts 270°
2026-05-04 21:08 36.07774 -115.18037 3218 ft 165 kts 271°
2026-05-04 21:08 36.07874 -115.19439 3768 ft 164 kts 271°
2026-05-04 21:09 36.07996 -115.21343 4278 ft 170 kts 267°
2026-05-04 21:09 36.07746 -115.22774 4620 ft 174 kts 237°
2026-05-04 21:09 36.07182 -115.23497 4952 ft 176 kts 213°
2026-05-04 21:09 36.06027 -115.24066 5445 ft 182 kts 200°
2026-05-04 21:10 36.04788 -115.24510 5966 ft 185 kts 199°
2026-05-04 21:10 36.03497 -115.24962 6311 ft 204 kts 196°
2026-05-04 21:10 36.01984 -115.25003 6494 ft 238 kts 169°
2026-05-04 21:10 36.00526 -115.23908 6916 ft 264 kts 135°
2026-05-04 21:11 35.99692 -115.21825 7475 ft 284 kts 103°
2026-05-04 21:11 35.99859 -115.19366 8290 ft 295 kts 73°
2026-05-04 21:11 36.00910 -115.17181 9127 ft 300 kts 54°
2026-05-04 21:11 36.02200 -115.15185 10082 ft 292 kts 55°
2026-05-04 21:12 36.03442 -115.13194 10665 ft 301 kts 55°
2026-05-04 21:12 36.04747 -115.11100 11079 ft 314 kts 55°
2026-05-04 21:12 36.06115 -115.08929 11546 ft 327 kts 54°
2026-05-04 21:12 36.07537 -115.06658 11994 ft 339 kts 54°
2026-05-04 21:13 36.08978 -115.04328 12610 ft 346 kts 56°
2026-05-04 21:13 36.10163 -115.01693 12986 ft 356 kts 71°
2026-05-04 21:13 36.10834 -114.98714 13467 ft 363 kts 82°
2026-05-04 21:13 36.11247 -114.95606 13902 ft 371 kts 84°
2026-05-04 21:14 36.11619 -114.92414 14376 ft 379 kts 85°
2026-05-04 21:14 36.11979 -114.89149 14825 ft 387 kts 86°
2026-05-04 21:14 36.12328 -114.85819 15364 ft 393 kts 86°
2026-05-04 21:14 36.12647 -114.82440 15894 ft 398 kts 88°
2026-05-04 21:15 36.12909 -114.78997 16337 ft 407 kts 88°
2026-05-04 21:15 36.13211 -114.75463 16653 ft 418 kts 86°
2026-05-04 21:15 36.13587 -114.71896 17288 ft 421 kts 85°
2026-05-04 21:15 36.14025 -114.68282 17679 ft 428 kts 84°
2026-05-04 21:16 36.14504 -114.64627 18177 ft 433 kts 83°
2026-05-04 21:16 36.14995 -114.60938 18638 ft 436 kts 83°
2026-05-04 21:16 36.15488 -114.57217 19052 ft 441 kts 83°
2026-05-04 21:16 36.15978 -114.53448 19439 ft 446 kts 83°
2026-05-04 21:17 36.16463 -114.49647 19927 ft 449 kts 84°
2026-05-04 21:17 36.16952 -114.45816 20340 ft 453 kts 83°
2026-05-04 21:17 36.17446 -114.41955 20807 ft 456 kts 83°
2026-05-04 21:17 36.17946 -114.38056 21156 ft 461 kts 83°
2026-05-04 21:18 36.18449 -114.34125 21594 ft 464 kts 83°
2026-05-04 21:18 36.18957 -114.30161 21994 ft 468 kts 83°
2026-05-04 21:18 36.19469 -114.26163 22377 ft 472 kts 83°
2026-05-04 21:18 36.19985 -114.22132 22783 ft 476 kts 83°
2026-05-04 21:19 36.20504 -114.18069 23162 ft 480 kts 83°
2026-05-04 21:19 36.21025 -114.13979 23543 ft 482 kts 83°
2026-05-04 21:19 36.21555 -114.09860 23822 ft 487 kts 83°
2026-05-04 21:19 36.22096 -114.05700 23993 ft 493 kts 83°
2026-05-04 21:20 36.22634 -114.01485 24248 ft 497 kts 84°
2026-05-04 21:20 36.23171 -113.97243 24523 ft 501 kts 84°
2026-05-04 21:20 36.23703 -113.93025 24786 ft 504 kts 84°
2026-05-04 21:20 36.24250 -113.88717 25047 ft 508 kts 84°
2026-05-04 21:21 36.24804 -113.84379 25320 ft 512 kts 84°
2026-05-04 21:21 36.25362 -113.80011 25570 ft 516 kts 84°
2026-05-04 21:21 36.25925 -113.75605 25802 ft 519 kts 84°
2026-05-04 21:21 36.26492 -113.71175 26033 ft 523 kts 84°
2026-05-04 21:22 36.27063 -113.66704 26262 ft 526 kts 84°
2026-05-04 21:22 36.27636 -113.62213 26483 ft 530 kts 84°
2026-05-04 21:22 36.28213 -113.57692 26709 ft 533 kts 85°
2026-05-04 21:22 36.28793 -113.53143 26936 ft 536 kts 85°
2026-05-04 21:23 36.29376 -113.48568 27151 ft 539 kts 85°
2026-05-04 21:23 36.29963 -113.43963 27309 ft 543 kts 85°
2026-05-04 21:23 36.30551 -113.39332 27487 ft 545 kts 85°
2026-05-04 21:23 36.31147 -113.34677 27710 ft 547 kts 85°
2026-05-04 21:24 36.31745 -113.30005 27927 ft 550 kts 85°
2026-05-04 21:24 36.32344 -113.25314 28089 ft 553 kts 85°
2026-05-04 21:24 36.32941 -113.20591 28301 ft 555 kts 85°
2026-05-04 21:24 36.33538 -113.15852 28520 ft 558 kts 85°
2026-05-04 21:25 36.34141 -113.11093 28730 ft 560 kts 85°
2026-05-04 21:25 36.34752 -113.06319 28923 ft 561 kts 85°
2026-05-04 21:25 36.35366 -113.01550 29256 ft 560 kts 85°
2026-05-04 21:25 36.35981 -112.96761 29362 ft 564 kts 85°
2026-05-04 21:26 36.36595 -112.91947 29565 ft 566 kts 86°
2026-05-04 21:26 36.37325 -112.87137 29719 ft 573 kts 77°
2026-05-04 21:26 36.38817 -112.82520 29862 ft 579 kts 64°
2026-05-04 21:26 36.40811 -112.78171 30027 ft 582 kts 57°
2026-05-04 21:27 36.45073 -112.69660 30256 ft 586 kts 62°
2026-05-04 21:27 36.46914 -112.65137 30389 ft 587 kts 65°
2026-05-04 21:27 36.48680 -112.60547 30494 ft 590 kts 65°
2026-05-04 21:28 36.50443 -112.55950 30715 ft 589 kts 65°
2026-05-04 21:28 36.52210 -112.51344 30809 ft 592 kts 65°
2026-05-04 21:28 36.55774 -112.42044 30937 ft 598 kts 65°
2026-05-04 21:29 36.57561 -112.37373 31196 ft 597 kts 65°
2026-05-04 21:29 36.59332 -112.32731 31542 ft 586 kts 65°
2026-05-04 21:29 36.61070 -112.28155 31675 ft 586 kts 65°
2026-05-04 21:29 36.62814 -112.23562 31856 ft 587 kts 65°
2026-05-04 21:30 36.64559 -112.18964 32040 ft 589 kts 65°
2026-05-04 21:30 36.66310 -112.14348 32213 ft 591 kts 65°
2026-05-04 21:30 36.69806 -112.05115 31998 ft 586 kts 65°
2026-05-04 21:31 36.73233 -111.96065 32745 ft 574 kts 65°
2026-05-04 21:31 36.74944 -111.91545 32780 ft 580 kts 65°
2026-05-04 21:32 36.78431 -111.82339 32777 ft 591 kts 65°
2026-05-04 21:32 36.81944 -111.73019 32770 ft 596 kts 65°
2026-05-04 21:33 36.85429 -111.63725 32756 ft 587 kts 65°
2026-05-04 21:33 36.88936 -111.54432 32923 ft 596 kts 65°
2026-05-04 21:34 36.92449 -111.45129 32921 ft 595 kts 65°
2026-05-04 21:34 36.95923 -111.35888 32909 ft 586 kts 65°
2026-05-04 21:35 36.99346 -111.26619 32871 ft 587 kts 65°
2026-05-04 21:35 37.02734 -111.17330 32830 ft 587 kts 65°
2026-05-04 21:36 37.06118 -111.08050 32803 ft 583 kts 65°
2026-05-04 21:36 37.09488 -110.98796 32777 ft 584 kts 65°
2026-05-04 21:37 37.12854 -110.89539 32780 ft 586 kts 65°
2026-05-04 21:37 37.16224 -110.80239 32789 ft 585 kts 65°
2026-05-04 21:38 37.19584 -110.70936 32789 ft 586 kts 65°
2026-05-04 21:38 37.22940 -110.61593 32784 ft 587 kts 65°
2026-05-04 21:39 37.26279 -110.52264 32779 ft 586 kts 65°
2026-05-04 21:39 37.29620 -110.42912 32782 ft 589 kts 66°
2026-05-04 21:40 37.32930 -110.33590 32778 ft 588 kts 65°
2026-05-04 21:40 37.36258 -110.24214 32782 ft 586 kts 66°
2026-05-04 21:41 37.39581 -110.14850 32790 ft 587 kts 65°
2026-05-04 21:41 37.42907 -110.05461 32788 ft 589 kts 65°
2026-05-04 21:42 37.46230 -109.96053 32789 ft 588 kts 65°
2026-05-04 21:42 37.49549 -109.86638 32796 ft 588 kts 65°
2026-05-04 21:43 37.52868 -109.77221 32798 ft 589 kts 65°
2026-05-04 21:43 37.56188 -109.67763 32928 ft 590 kts 65°
2026-05-04 21:44 37.59481 -109.58283 32990 ft 590 kts 65°
2026-05-04 21:44 37.62765 -109.48804 32984 ft 589 kts 65°
2026-05-04 21:45 37.66044 -109.39329 32978 ft 589 kts 65°
2026-05-04 21:45 37.69325 -109.29838 32929 ft 590 kts 65°
2026-05-04 21:46 37.72592 -109.20343 32875 ft 589 kts 66°
2026-05-04 21:46 37.75780 -109.10805 32834 ft 589 kts 65°
2026-05-04 21:47 37.78971 -109.01282 32835 ft 586 kts 65°
2026-05-04 21:47 37.81984 -108.91724 32835 ft 586 kts 72°
2026-05-04 21:48 37.84124 -108.81778 32835 ft 587 kts 76°
2026-05-04 21:48 37.86280 -108.71827 32825 ft 588 kts 77°
2026-05-04 21:49 37.88487 -108.61861 32837 ft 588 kts 72°
2026-05-04 21:49 37.90506 -108.51833 32863 ft 589 kts 76°
2026-05-04 21:50 37.92652 -108.41922 32867 ft 588 kts 76°
2026-05-04 21:50 37.94741 -108.31908 32881 ft 589 kts 73°
2026-05-04 21:51 37.96761 -108.21840 32950 ft 590 kts 74°
2026-05-04 21:51 37.97927 -108.16856 32848 ft 590 kts 73°
2026-05-04 21:51 37.98933 -108.11820 32859 ft 590 kts 77°
2026-05-04 21:52 38.01030 -108.01788 32874 ft 587 kts 72°
2026-05-04 21:52 38.03010 -107.91709 32867 ft 590 kts 76°
2026-05-04 21:53 38.05105 -107.81697 32875 ft 588 kts 77°
2026-05-04 21:53 38.07197 -107.71625 32883 ft 589 kts 73°
2026-05-04 21:54 38.09154 -107.61554 32872 ft 588 kts 75°
2026-05-04 21:54 38.11229 -107.51515 32880 ft 587 kts 77°
2026-05-04 21:55 38.13256 -107.41478 32908 ft 586 kts 74°
2026-05-04 21:55 38.15206 -107.31383 32899 ft 589 kts 73°
2026-05-04 21:56 38.17185 -107.21282 32913 ft 588 kts 75°
2026-05-04 21:56 38.19241 -107.11243 32893 ft 584 kts 77°
2026-05-04 21:57 38.21221 -107.01190 32917 ft 587 kts 73°
2026-05-04 21:57 38.22790 -106.92807 32925 ft 586 kts 76°
2026-05-04 21:58 38.25070 -106.81116 32896 ft 586 kts 77°
2026-05-04 21:58 38.27087 -106.71067 32886 ft 587 kts 74°
2026-05-04 21:59 38.28617 -106.62603 32886 ft 583 kts 75°
2026-05-04 21:59 38.30531 -106.52565 32865 ft 584 kts 76°
2026-05-04 22:00 38.32557 -106.42629 32854 ft 583 kts 75°
2026-05-04 22:00 38.34334 -106.32527 32886 ft 585 kts 74°
2026-05-04 22:01 38.36236 -106.22522 32913 ft 580 kts 76°
2026-05-04 22:01 38.38157 -106.12534 32926 ft 581 kts 76°
2026-05-04 22:02 38.39991 -106.02494 32936 ft 581 kts 73°
2026-05-04 22:02 38.41799 -105.92472 32718 ft 574 kts 75°
2026-05-04 22:03 38.43696 -105.82550 32708 ft 580 kts 77°
2026-05-04 22:03 38.45544 -105.72512 32667 ft 580 kts 74°
2026-05-04 22:04 38.47297 -105.62449 32635 ft 582 kts 74°
2026-05-04 22:04 38.49156 -105.52399 32628 ft 583 kts 77°
2026-05-04 22:05 38.51032 -105.42383 32575 ft 578 kts 73°
2026-05-04 22:05 38.52727 -105.32334 32523 ft 582 kts 75°
2026-05-04 22:06 38.54541 -105.22260 32530 ft 580 kts 77°
2026-05-04 22:06 38.56393 -105.12267 32489 ft 577 kts 75°
2026-05-04 22:07 38.58111 -105.02243 32475 ft 579 kts 72°
2026-05-04 22:07 38.59904 -104.92191 32534 ft 580 kts 76°
2026-05-04 22:08 38.61771 -104.82162 32511 ft 580 kts 76°
2026-05-04 22:08 38.63506 -104.72084 32519 ft 580 kts 73°
2026-05-04 22:09 38.65222 -104.61994 32656 ft 581 kts 75°
2026-05-04 22:09 38.67069 -104.52042 32663 ft 576 kts 77°
2026-05-04 22:09 38.67828 -104.47037 32781 ft 572 kts 74°
2026-05-04 22:10 38.68766 -104.42097 32754 ft 572 kts 73°
2026-05-04 22:10 38.70407 -104.32096 32728 ft 574 kts 74°
2026-05-04 22:11 38.72228 -104.22153 32695 ft 574 kts 76°
2026-05-04 22:11 38.73952 -104.12197 32681 ft 572 kts 74°
2026-05-04 22:12 38.75567 -104.02211 32683 ft 571 kts 72°
2026-05-04 22:12 38.77288 -103.92254 32691 ft 574 kts 76°
2026-05-04 22:13 38.79045 -103.82302 32688 ft 572 kts 75°
2026-05-04 22:13 38.80634 -103.72353 32687 ft 569 kts 72°
2026-05-04 22:14 38.82263 -103.62397 32689 ft 572 kts 78°
2026-05-04 22:14 38.82906 -103.52202 32693 ft 575 kts 87°
2026-05-04 22:15 38.82967 -103.41948 32684 ft 573 kts 85°
2026-05-04 22:15 38.83345 -103.31732 32687 ft 574 kts 86°
2026-05-04 22:16 38.83572 -103.21499 32685 ft 574 kts 87°
2026-05-04 22:16 38.83794 -103.11272 32661 ft 573 kts 87°
2026-05-04 22:17 38.84023 -103.01085 32662 ft 579 kts 87°
2026-05-04 22:17 38.84238 -102.90761 32667 ft 579 kts 87°
2026-05-04 22:18 38.84453 -102.80448 32668 ft 578 kts 87°
2026-05-04 22:18 38.84655 -102.70146 32672 ft 576 kts 87°
2026-05-04 22:19 38.84845 -102.59874 32665 ft 576 kts 87°
2026-05-04 22:19 38.85036 -102.49593 32665 ft 576 kts 87°
2026-05-04 22:20 38.85215 -102.39311 32678 ft 576 kts 88°
2026-05-04 22:20 38.85345 -102.29077 32657 ft 573 kts 87°
2026-05-04 22:21 38.85531 -102.18847 32652 ft 574 kts 87°
2026-05-04 22:21 38.85656 -102.08612 32649 ft 574 kts 87°
2026-05-04 22:22 38.85803 -101.98398 32645 ft 570 kts 87°
2026-05-04 22:22 38.85921 -101.88238 32637 ft 570 kts 87°
2026-05-04 22:23 38.86033 -101.78057 32643 ft 571 kts 88°
2026-05-04 22:23 38.86146 -101.67883 32638 ft 570 kts 87°
2026-05-04 22:24 38.86255 -101.57757 32631 ft 566 kts 87°
2026-05-04 22:24 38.86363 -101.47652 32634 ft 567 kts 87°
2026-05-04 22:25 38.86467 -101.37607 32634 ft 567 kts 88°
2026-05-04 22:25 38.86493 -101.27486 32635 ft 569 kts 87°
2026-05-04 22:26 38.86583 -101.17215 32640 ft 573 kts 87°
2026-05-04 22:26 38.86673 -101.07065 32651 ft 572 kts 87°
2026-05-04 22:27 38.86682 -100.96855 32669 ft 573 kts 88°
2026-05-04 22:27 38.86704 -100.86641 32673 ft 572 kts 88°
2026-05-04 22:28 38.86737 -100.76432 32673 ft 572 kts 88°
2026-05-04 22:28 38.86773 -100.66214 32669 ft 573 kts 88°
2026-05-04 22:29 38.86809 -100.55974 32675 ft 576 kts 87°
2026-05-04 22:29 38.86831 -100.45697 32649 ft 575 kts 88°
2026-05-04 22:30 38.86809 -100.35436 32646 ft 576 kts 87°
2026-05-04 22:30 38.86798 -100.25156 32650 ft 576 kts 88°
2026-05-04 22:31 38.86776 -100.14909 32657 ft 570 kts 87°
2026-05-04 22:31 38.86743 -100.04732 32650 ft 571 kts 87°
2026-05-04 22:32 38.86701 -99.94547 32653 ft 571 kts 87°
2026-05-04 22:32 38.86660 -99.84367 32653 ft 571 kts 87°
2026-05-04 22:33 38.86616 -99.74248 32653 ft 564 kts 88°
2026-05-04 22:33 38.86563 -99.64164 32657 ft 566 kts 88°
2026-05-04 22:34 38.86474 -99.54066 32659 ft 566 kts 88°
2026-05-04 22:34 38.86397 -99.43963 32675 ft 565 kts 88°
2026-05-04 22:35 38.86305 -99.33899 32694 ft 564 kts 88°
2026-05-04 22:35 38.86340 -99.23839 32698 ft 563 kts 85°
2026-05-04 22:36 38.86613 -99.13810 32696 ft 561 kts 81°
2026-05-04 22:36 38.87293 -99.03854 32684 ft 555 kts 82°
2026-05-04 22:37 38.87897 -98.93996 32681 ft 555 kts 82°
2026-05-04 22:37 38.88432 -98.84103 32684 ft 556 kts 83°
2026-05-04 22:38 38.88928 -98.74263 32686 ft 556 kts 83°
2026-05-04 22:38 38.89424 -98.64396 32682 ft 551 kts 83°
2026-05-04 22:39 38.89918 -98.54562 32666 ft 552 kts 83°
2026-05-04 22:39 38.90413 -98.44733 32662 ft 552 kts 83°
2026-05-04 22:40 38.90864 -98.34888 32657 ft 553 kts 83°
2026-05-04 22:40 38.91317 -98.25066 32658 ft 550 kts 83°
2026-05-04 22:41 38.91764 -98.15246 32661 ft 551 kts 83°
2026-05-04 22:41 38.92209 -98.05422 32663 ft 551 kts 83°
2026-05-04 22:42 38.92653 -97.95600 32674 ft 550 kts 83°
2026-05-04 22:42 38.93097 -97.85816 32669 ft 548 kts 83°
2026-05-04 22:43 38.93506 -97.76103 32673 ft 549 kts 84°
2026-05-04 22:43 38.93900 -97.66315 32675 ft 549 kts 83°
2026-05-04 22:44 38.94573 -97.56580 32674 ft 545 kts 77°
2026-05-04 22:44 38.95881 -97.47055 32662 ft 541 kts 75°
2026-05-04 22:45 38.97226 -97.37542 32660 ft 541 kts 75°
2026-05-04 22:45 38.99219 -97.23264 32657 ft 541 kts 76°
2026-05-04 22:46 39.00524 -97.13726 32655 ft 542 kts 76°
2026-05-04 22:46 39.01607 -97.05804 32658 ft 542 kts 76°
2026-05-04 22:47 39.02912 -96.96265 32660 ft 542 kts 76°
2026-05-04 22:47 39.04166 -96.86710 32659 ft 544 kts 80°
2026-05-04 22:48 39.05091 -96.77080 32662 ft 540 kts 73°
2026-05-04 22:48 39.06552 -96.67580 32662 ft 541 kts 75°
2026-05-04 22:49 39.07883 -96.58044 32670 ft 542 kts 75°
2026-05-04 22:49 39.09169 -96.48484 32663 ft 542 kts 76°
2026-05-04 22:50 39.10403 -96.38908 32659 ft 542 kts 76°
2026-05-04 22:50 39.11638 -96.29331 32659 ft 542 kts 76°
2026-05-04 22:51 39.12876 -96.19756 32656 ft 542 kts 76°
2026-05-04 22:51 39.14081 -96.10162 32656 ft 543 kts 77°
2026-05-04 22:52 39.15259 -96.00574 32661 ft 541 kts 77°
2026-05-04 22:52 39.16444 -95.90987 32669 ft 542 kts 77°
2026-05-04 22:53 39.17631 -95.81397 32673 ft 542 kts 77°
2026-05-04 22:53 39.18821 -95.71801 32676 ft 542 kts 77°
2026-05-04 22:54 39.19994 -95.62223 32668 ft 540 kts 77°
2026-05-04 22:54 39.21144 -95.52644 32669 ft 541 kts 77°
2026-05-04 22:55 39.22290 -95.43060 32669 ft 541 kts 77°
2026-05-04 22:55 39.23431 -95.33539 32673 ft 539 kts 78°
2026-05-04 22:56 39.24572 -95.23998 32667 ft 538 kts 78°
2026-05-04 22:56 39.25699 -95.14458 32663 ft 538 kts 78°
2026-05-04 22:57 39.26830 -95.04902 32662 ft 539 kts 78°
2026-05-04 22:57 39.27962 -94.95355 32672 ft 538 kts 78°
2026-05-04 22:58 39.29023 -94.85793 32684 ft 538 kts 78°
2026-05-04 22:58 39.30111 -94.76226 32689 ft 538 kts 78°
2026-05-04 22:59 39.31221 -94.66674 32669 ft 538 kts 78°
2026-05-04 22:59 39.32513 -94.57175 32688 ft 537 kts 76°
2026-05-04 23:00 39.33830 -94.47713 32670 ft 535 kts 76°
2026-05-04 23:00 39.35084 -94.38226 32672 ft 536 kts 77°
2026-05-04 23:01 39.36308 -94.28791 33126 ft 529 kts 76°
2026-05-04 23:01 39.36924 -94.24100 33413 ft 529 kts 76°
2026-05-04 23:01 39.37537 -94.19412 33685 ft 530 kts 76°
2026-05-04 23:02 39.38151 -94.14718 33944 ft 529 kts 76°
2026-05-04 23:02 39.38767 -94.10029 34198 ft 529 kts 76°
2026-05-04 23:02 39.39382 -94.05345 34451 ft 529 kts 75°
2026-05-04 23:02 39.39998 -94.00658 34661 ft 530 kts 75°
2026-05-04 23:03 39.41250 -93.91191 34663 ft 537 kts 75°
2026-05-04 23:03 39.42427 -93.81661 34666 ft 536 kts 76°
2026-05-04 23:04 39.43591 -93.72289 34664 ft 529 kts 76°
2026-05-04 23:04 39.44760 -93.62887 34662 ft 530 kts 76°
2026-05-04 23:05 39.45934 -93.53476 34664 ft 530 kts 76°
2026-05-04 23:05 39.47109 -93.44063 34665 ft 530 kts 76°
2026-05-04 23:06 39.48286 -93.34649 34659 ft 530 kts 76°
2026-05-04 23:06 39.49415 -93.25219 34660 ft 531 kts 77°
2026-05-04 23:07 39.50394 -93.15749 34665 ft 530 kts 76°
2026-05-04 23:07 39.51565 -93.06318 34669 ft 530 kts 76°
2026-05-04 23:08 39.52717 -92.96947 34670 ft 524 kts 77°
2026-05-04 23:08 39.53851 -92.87604 34668 ft 526 kts 77°
2026-05-04 23:09 39.54892 -92.78234 34677 ft 524 kts 78°
2026-05-04 23:09 39.55918 -92.68938 34684 ft 521 kts 78°
2026-05-04 23:10 39.56932 -92.59746 34681 ft 516 kts 78°
2026-05-04 23:10 39.57948 -92.50532 34691 ft 517 kts 78°
2026-05-04 23:11 39.58975 -92.41237 34683 ft 517 kts 78°
2026-05-04 23:11 39.59963 -92.32065 34691 ft 518 kts 79°
2026-05-04 23:12 39.60917 -92.22842 34685 ft 513 kts 79°
2026-05-04 23:12 39.61891 -92.13672 34670 ft 514 kts 79°
2026-05-04 23:13 39.62845 -92.04484 34673 ft 514 kts 78°
2026-05-04 23:13 39.63798 -91.95285 34668 ft 514 kts 79°
2026-05-04 23:14 39.64745 -91.86109 34670 ft 511 kts 79°
2026-05-04 23:14 39.65686 -91.76970 34666 ft 511 kts 79°
2026-05-04 23:15 39.66628 -91.67822 34667 ft 512 kts 79°
2026-05-04 23:15 39.67515 -91.58653 34669 ft 512 kts 79°
2026-05-04 23:16 39.68430 -91.49497 34689 ft 509 kts 79°
2026-05-04 23:16 39.69327 -91.40410 34672 ft 508 kts 80°
2026-05-04 23:17 39.69780 -91.31231 34665 ft 509 kts 78°
2026-05-04 23:17 39.70949 -91.22191 34977 ft 508 kts 78°
2026-05-04 23:18 39.71963 -91.13111 35003 ft 507 kts 79°
2026-05-04 23:18 39.72866 -91.04153 35001 ft 503 kts 81°
2026-05-04 23:19 39.73194 -90.95046 34970 ft 505 kts 79°
2026-05-04 23:19 39.73806 -90.90570 34685 ft 503 kts 77°
2026-05-04 23:19 39.74374 -90.86082 34691 ft 504 kts 78°
2026-05-04 23:20 39.75376 -90.77071 34686 ft 504 kts 79°
2026-05-04 23:20 39.76232 -90.68131 34679 ft 495 kts 82°
2026-05-04 23:21 39.76974 -90.59229 34670 ft 496 kts 80°
2026-05-04 23:21 39.77857 -90.50323 34668 ft 497 kts 82°
2026-05-04 23:22 39.78567 -90.41389 34675 ft 496 kts 79°
2026-05-04 23:22 39.79437 -90.32505 34685 ft 495 kts 84°
2026-05-04 23:23 39.80216 -90.23629 34686 ft 494 kts 81°
2026-05-04 23:23 39.80919 -90.14741 34685 ft 493 kts 83°
2026-05-04 23:24 39.81775 -90.05888 34682 ft 494 kts 85°
2026-05-04 23:24 39.82545 -89.97024 34687 ft 493 kts 82°
2026-05-04 23:25 39.83236 -89.88168 34696 ft 492 kts 83°
2026-05-04 23:25 39.83995 -89.79324 34702 ft 492 kts 84°
2026-05-04 23:26 39.84790 -89.70480 34698 ft 492 kts 84°
2026-05-04 23:26 39.85230 -89.61591 34699 ft 492 kts 88°
2026-05-04 23:27 39.85252 -89.52681 34695 ft 493 kts 91°
2026-05-04 23:27 39.85377 -89.43772 34691 ft 492 kts 91°
2026-05-04 23:28 39.85265 -89.34856 34694 ft 493 kts 89°
2026-05-04 23:28 39.85222 -89.25941 34689 ft 493 kts 89°
2026-05-04 23:29 39.85234 -89.17111 34697 ft 490 kts 91°
2026-05-04 23:29 39.85243 -89.08229 34700 ft 491 kts 90°
2026-05-04 23:30 39.85152 -88.99348 34698 ft 491 kts 88°
2026-05-04 23:30 39.85145 -88.90466 34700 ft 491 kts 91°
2026-05-04 23:31 39.85060 -88.81578 34698 ft 490 kts 90°
2026-05-04 23:31 39.84995 -88.72706 34698 ft 491 kts 90°
2026-05-04 23:32 39.84927 -88.63831 34700 ft 490 kts 90°
2026-05-04 23:32 39.84859 -88.54955 34707 ft 491 kts 90°
2026-05-04 23:33 39.84789 -88.46075 34711 ft 491 kts 91°
2026-05-04 23:33 39.84656 -88.37158 34710 ft 493 kts 91°
2026-05-04 23:34 39.84542 -88.28237 34710 ft 493 kts 91°
2026-05-04 23:34 39.84436 -88.19320 34710 ft 493 kts 91°
2026-05-04 23:35 39.84339 -88.11907 34720 ft 493 kts 91°
2026-05-04 23:35 39.84222 -88.02965 34718 ft 496 kts 91°
2026-05-04 23:36 39.84084 -87.92539 34727 ft 495 kts 91°
2026-05-04 23:36 39.83975 -87.85037 34729 ft 495 kts 91°
2026-05-04 23:37 39.83823 -87.76072 34729 ft 495 kts 91°
2026-05-04 23:37 39.83681 -87.67109 34727 ft 497 kts 91°
2026-05-04 23:38 39.83537 -87.58167 34729 ft 497 kts 91°
2026-05-04 23:38 39.83368 -87.49174 34729 ft 497 kts 91°
2026-05-04 23:39 39.83211 -87.40186 34729 ft 497 kts 91°
2026-05-04 23:39 39.83032 -87.31192 34734 ft 497 kts 91°
2026-05-04 23:40 39.82852 -87.22203 34733 ft 497 kts 91°
2026-05-04 23:40 39.82669 -87.13211 34731 ft 497 kts 91°
2026-05-04 23:41 39.82472 -87.04222 34731 ft 497 kts 91°
2026-05-04 23:41 39.82276 -86.95229 34724 ft 497 kts 91°
2026-05-04 23:42 39.82061 -86.86276 34720 ft 494 kts 91°
2026-05-04 23:42 39.81855 -86.77335 34746 ft 495 kts 91°
2026-05-04 23:43 39.81634 -86.68392 34747 ft 495 kts 91°
2026-05-04 23:43 39.81396 -86.59449 34745 ft 495 kts 91°
2026-05-04 23:44 39.81157 -86.50529 34736 ft 492 kts 91°
2026-05-04 23:44 39.80918 -86.41631 34733 ft 493 kts 91°
2026-05-04 23:45 39.80736 -86.32726 34727 ft 492 kts 86°
2026-05-04 23:45 39.81929 -86.24022 34738 ft 488 kts 69°
2026-05-04 23:46 39.83987 -86.15656 34749 ft 489 kts 72°
2026-05-04 23:46 39.85814 -86.07143 34747 ft 489 kts 73°
2026-05-04 23:47 39.87445 -85.98551 34746 ft 488 kts 71°
2026-05-04 23:47 39.89304 -85.90048 34750 ft 489 kts 73°
2026-05-04 23:48 39.90901 -85.81445 34744 ft 488 kts 71°
2026-05-04 23:48 39.92769 -85.72939 34746 ft 489 kts 73°
2026-05-04 23:49 39.94363 -85.64331 34744 ft 488 kts 72°
2026-05-04 23:49 39.96212 -85.55786 34746 ft 491 kts 73°
2026-05-04 23:50 39.97784 -85.47125 34749 ft 490 kts 72°
2026-05-04 23:50 39.99643 -85.38580 34754 ft 488 kts 73°
2026-05-04 23:51 40.01193 -85.29967 34733 ft 488 kts 73°
2026-05-04 23:51 40.03022 -85.21450 34735 ft 488 kts 73°
2026-05-04 23:52 40.04581 -85.12824 34740 ft 488 kts 74°
2026-05-04 23:52 40.06392 -85.04296 34742 ft 488 kts 73°
2026-05-04 23:53 40.07941 -84.95662 34740 ft 488 kts 72°
2026-05-04 23:53 40.09736 -84.87116 34748 ft 488 kts 73°
2026-05-04 23:54 40.11316 -84.78496 34755 ft 487 kts 71°
2026-05-04 23:54 40.13029 -84.69924 34757 ft 489 kts 76°
2026-05-04 23:55 40.14666 -84.61308 34758 ft 489 kts 72°
2026-05-04 23:56 40.17126 -84.48371 34761 ft 489 kts 72°
2026-05-04 23:56 40.18695 -84.39714 34762 ft 490 kts 76°
2026-05-04 23:57 40.20434 -84.31121 34754 ft 489 kts 73°
2026-05-04 23:57 40.21985 -84.22445 34748 ft 490 kts 72°
2026-05-04 23:58 40.23650 -84.13801 34764 ft 491 kts 77°
2026-05-04 23:58 40.25341 -84.05159 34772 ft 490 kts 73°
2026-05-04 23:59 40.26376 -83.96391 34776 ft 493 kts 85°
2026-05-04 23:59 40.26436 -83.87418 34782 ft 493 kts 88°
2026-05-05 00:00 40.26633 -83.78451 34777 ft 493 kts 90°
2026-05-05 00:00 40.26812 -83.69484 34778 ft 493 kts 86°
2026-05-05 00:01 40.26863 -83.60503 34777 ft 493 kts 86°
2026-05-05 00:01 40.27115 -83.51543 34773 ft 492 kts 90°
2026-05-05 00:02 40.27260 -83.42629 34784 ft 489 kts 86°
2026-05-05 00:02 40.27313 -83.33713 34785 ft 490 kts 87°
2026-05-05 00:03 40.27501 -83.24793 34785 ft 490 kts 90°
2026-05-05 00:03 40.27679 -83.15869 34780 ft 491 kts 87°
2026-05-05 00:04 40.27645 -83.06932 34785 ft 491 kts 89°
2026-05-05 00:04 40.27885 -82.97999 34784 ft 491 kts 89°
2026-05-05 00:05 40.27980 -82.89071 34786 ft 490 kts 86°
2026-05-05 00:05 40.28019 -82.80133 34785 ft 491 kts 88°
2026-05-05 00:06 40.28205 -82.71211 34780 ft 490 kts 91°
2026-05-05 00:06 40.28324 -82.62300 34788 ft 490 kts 87°
2026-05-05 00:07 40.28329 -82.53377 34793 ft 490 kts 88°
2026-05-05 00:07 40.28402 -82.44460 34792 ft 490 kts 90°
2026-05-05 00:08 40.28591 -82.35551 34790 ft 488 kts 89°
2026-05-05 00:08 40.28574 -82.26659 34792 ft 488 kts 87°
2026-05-05 00:09 40.28596 -82.17782 34794 ft 489 kts 89°
2026-05-05 00:09 40.28767 -82.08870 34791 ft 489 kts 90°
2026-05-05 00:10 40.28742 -81.99973 34788 ft 489 kts 88°
2026-05-05 00:10 40.28822 -81.91074 34791 ft 488 kts 91°
2026-05-05 00:11 40.28944 -81.82185 34792 ft 489 kts 88°
2026-05-05 00:11 40.28990 -81.73348 34794 ft 488 kts 90°
2026-05-05 00:12 40.29146 -81.64458 34801 ft 489 kts 89°
2026-05-05 00:12 40.29201 -81.55579 34797 ft 487 kts 87°
2026-05-05 00:13 40.29220 -81.46707 34804 ft 487 kts 89°
2026-05-05 00:13 40.29369 -81.37834 34805 ft 488 kts 91°
2026-05-05 00:14 40.29355 -81.28966 34808 ft 487 kts 87°
2026-05-05 00:14 40.29436 -81.20084 34814 ft 488 kts 90°
2026-05-05 00:15 40.29557 -81.11213 34812 ft 488 kts 89°
2026-05-05 00:15 40.29471 -81.02333 34827 ft 487 kts 86°
2026-05-05 00:15 40.29560 -80.97965 34826 ft 470 kts 88°
2026-05-05 00:16 40.29558 -80.93732 34810 ft 461 kts 90°
2026-05-05 00:16 40.29622 -80.85326 34818 ft 463 kts 90°
2026-05-05 00:17 40.29578 -80.76886 34834 ft 463 kts 87°
2026-05-05 00:17 40.29591 -80.68502 34843 ft 464 kts 90°
2026-05-05 00:18 40.29664 -80.60063 34848 ft 464 kts 91°
2026-05-05 00:18 40.29683 -80.51622 34859 ft 463 kts 88°
2026-05-05 00:19 40.29584 -80.43179 34860 ft 463 kts 87°
2026-05-05 00:19 40.29598 -80.34751 34868 ft 463 kts 91°
2026-05-05 00:20 40.29651 -80.26318 34868 ft 463 kts 89°
2026-05-05 00:20 40.29579 -80.17886 34870 ft 463 kts 86°
2026-05-05 00:21 40.29510 -80.09466 34835 ft 462 kts 90°
2026-05-05 00:21 40.29575 -80.01056 34836 ft 462 kts 90°
2026-05-05 00:22 40.29377 -79.92643 34840 ft 462 kts 87°
2026-05-05 00:22 40.29441 -79.84236 34841 ft 462 kts 89°
2026-05-05 00:23 40.29376 -79.75826 34835 ft 461 kts 89°
2026-05-05 00:23 40.29319 -79.68847 34836 ft 461 kts 89°
2026-05-05 00:24 40.29251 -79.60445 34856 ft 461 kts 89°
2026-05-05 00:24 40.29183 -79.52039 34861 ft 462 kts 89°
2026-05-05 00:25 40.29096 -79.43638 34862 ft 461 kts 90°
2026-05-05 00:25 40.29002 -79.35243 34862 ft 461 kts 89°
2026-05-05 00:26 40.28917 -79.26847 34858 ft 461 kts 90°
2026-05-05 00:26 40.28795 -79.18450 34859 ft 461 kts 90°
2026-05-05 00:27 40.28706 -79.10056 34872 ft 461 kts 89°
2026-05-05 00:27 40.28604 -79.01667 34861 ft 461 kts 96°
2026-05-05 00:28 40.28035 -78.93328 34877 ft 460 kts 84°
2026-05-05 00:28 40.28316 -78.84963 34887 ft 461 kts 88°
2026-05-05 00:29 40.28269 -78.76636 34887 ft 461 kts 91°
2026-05-05 00:29 40.28184 -78.68263 34875 ft 460 kts 87°
2026-05-05 00:30 40.28278 -78.59914 34871 ft 458 kts 88°
2026-05-05 00:30 40.28276 -78.55730 34671 ft 460 kts 89°
2026-05-05 00:30 40.28271 -78.51562 34409 ft 456 kts 89°
2026-05-05 00:30 40.28266 -78.47436 34160 ft 451 kts 89°
2026-05-05 00:31 40.28260 -78.43342 33950 ft 448 kts 89°
2026-05-05 00:31 40.28255 -78.39267 33653 ft 447 kts 89°
2026-05-05 00:31 40.28249 -78.35209 33297 ft 444 kts 89°
2026-05-05 00:31 40.28244 -78.31183 32945 ft 441 kts 89°
2026-05-05 00:32 40.28149 -78.27178 32599 ft 444 kts 92°
2026-05-05 00:32 40.28091 -78.23069 32270 ft 459 kts 87°
2026-05-05 00:32 40.28090 -78.18868 31963 ft 460 kts 92°
2026-05-05 00:32 40.28070 -78.14715 31643 ft 453 kts 84°
2026-05-05 00:33 40.28425 -78.10639 31324 ft 449 kts 80°
2026-05-05 00:33 40.28927 -78.06624 31002 ft 445 kts 78°
2026-05-05 00:33 40.29462 -78.02632 30679 ft 444 kts 78°
2026-05-05 00:33 40.29976 -77.98654 30357 ft 442 kts 79°
2026-05-05 00:34 40.30438 -77.94690 30035 ft 438 kts 82°
2026-05-05 00:34 40.30691 -77.90747 29681 ft 433 kts 86°
2026-05-05 00:34 40.30788 -77.86813 29308 ft 431 kts 88°
2026-05-05 00:34 40.30763 -77.82893 28931 ft 430 kts 93°
2026-05-05 00:35 40.30477 -77.79006 28584 ft 428 kts 95°
2026-05-05 00:35 40.30358 -77.75119 28228 ft 426 kts 89°
2026-05-05 00:35 40.30440 -77.71247 27880 ft 424 kts 86°
2026-05-05 00:35 40.30599 -77.67396 27537 ft 422 kts 85°
2026-05-05 00:36 40.30775 -77.63561 27196 ft 420 kts 86°
2026-05-05 00:36 40.30892 -77.59741 26857 ft 419 kts 88°
2026-05-05 00:36 40.30925 -77.55942 26518 ft 416 kts 89°
2026-05-05 00:36 40.30891 -77.52160 26188 ft 414 kts 90°
2026-05-05 00:37 40.30825 -77.48390 25863 ft 413 kts 91°
2026-05-05 00:37 40.30752 -77.44634 25541 ft 412 kts 91°
2026-05-05 00:37 40.30684 -77.40944 25225 ft 410 kts 91°
2026-05-05 00:37 40.30625 -77.37216 24907 ft 409 kts 90°
2026-05-05 00:38 40.30573 -77.33507 24851 ft 407 kts 90°
2026-05-05 00:38 40.30524 -77.29795 24847 ft 408 kts 90°
2026-05-05 00:38 40.30476 -77.26025 24851 ft 409 kts 90°
2026-05-05 00:38 40.30429 -77.22356 24859 ft 409 kts 90°
2026-05-05 00:39 40.30381 -77.18638 24852 ft 408 kts 90°
2026-05-05 00:39 40.30332 -77.14921 24857 ft 408 kts 90°
2026-05-05 00:39 40.30282 -77.11207 24858 ft 408 kts 90°
2026-05-05 00:39 40.30232 -77.07493 24864 ft 408 kts 90°
2026-05-05 00:40 40.30182 -77.03776 24863 ft 408 kts 90°
2026-05-05 00:40 40.29968 -77.00075 24851 ft 408 kts 100°
2026-05-05 00:40 40.29241 -76.96483 24851 ft 408 kts 109°
2026-05-05 00:40 40.28213 -76.93024 24860 ft 408 kts 113°
2026-05-05 00:41 40.27129 -76.89590 24863 ft 408 kts 113°
2026-05-05 00:41 40.26045 -76.86157 24854 ft 408 kts 112°
2026-05-05 00:41 40.24939 -76.82720 24852 ft 410 kts 115°
2026-05-05 00:41 40.23741 -76.79341 24855 ft 409 kts 115°
2026-05-05 00:42 40.22728 -76.75855 24850 ft 414 kts 108°
2026-05-05 00:42 40.21925 -76.72171 24868 ft 427 kts 104°
2026-05-05 00:42 40.21204 -76.68416 24854 ft 425 kts 103°
2026-05-05 00:42 40.20519 -76.64667 24856 ft 423 kts 103°
2026-05-05 00:43 40.19806 -76.60934 24859 ft 423 kts 105°
2026-05-05 00:43 40.19013 -76.57233 24855 ft 423 kts 106°
2026-05-05 00:43 40.18162 -76.53546 24764 ft 424 kts 108°
2026-05-05 00:43 40.17250 -76.49887 24488 ft 422 kts 108°
2026-05-05 00:44 40.16315 -76.46260 24052 ft 419 kts 109°
2026-05-05 00:44 40.15387 -76.42663 23629 ft 417 kts 109°
2026-05-05 00:44 40.14472 -76.39076 23167 ft 414 kts 108°
2026-05-05 00:44 40.13579 -76.35516 22676 ft 411 kts 108°
2026-05-05 00:45 40.12697 -76.31975 22191 ft 408 kts 108°
2026-05-05 00:45 40.11837 -76.28504 21725 ft 406 kts 108°
2026-05-05 00:45 40.10969 -76.25011 21260 ft 403 kts 109°
2026-05-05 00:45 40.10108 -76.21541 20797 ft 401 kts 109°
2026-05-05 00:46 40.09250 -76.18087 20339 ft 398 kts 109°
2026-05-05 00:46 40.08397 -76.14656 19899 ft 396 kts 109°
2026-05-05 00:46 40.07810 -76.11145 19441 ft 397 kts 93°
2026-05-05 00:46 40.07992 -76.07565 19011 ft 395 kts 81°
2026-05-05 00:47 40.08541 -76.04068 18597 ft 393 kts 76°
2026-05-05 00:47 40.09187 -76.00612 18184 ft 391 kts 76°
2026-05-05 00:47 40.09824 -75.97166 17708 ft 389 kts 77°
2026-05-05 00:47 40.10088 -75.93667 17232 ft 387 kts 91°
2026-05-05 00:48 40.09886 -75.90199 16778 ft 378 kts 97°
2026-05-05 00:48 40.09519 -75.86848 16315 ft 368 kts 99°
2026-05-05 00:48 40.09133 -75.83591 15840 ft 360 kts 99°
2026-05-05 00:48 40.08797 -75.80379 15310 ft 353 kts 97°
2026-05-05 00:49 40.08527 -75.77277 14761 ft 335 kts 96°
2026-05-05 00:49 40.08308 -75.74316 14237 ft 321 kts 95°
2026-05-05 00:49 40.08115 -75.71463 13711 ft 310 kts 94°
2026-05-05 00:49 40.08127 -75.68709 13099 ft 298 kts 75°
2026-05-05 00:50 40.09023 -75.66387 12530 ft 281 kts 40°
2026-05-05 00:50 40.10617 -75.65141 11977 ft 260 kts
2026-05-05 00:50 40.12339 -75.65307 11489 ft 246 kts 330°
2026-05-05 00:50 40.13575 -75.66727 11029 ft 236 kts 295°
2026-05-05 00:51 40.14011 -75.68771 10592 ft 235 kts 277°
2026-05-05 00:51 40.14121 -75.70891 10139 ft 238 kts 273°
2026-05-05 00:51 40.14203 -75.73069 9658 ft 242 kts 273°
2026-05-05 00:51 40.14295 -75.75273 9130 ft 244 kts 273°
2026-05-05 00:52 40.14398 -75.77497 8667 ft 245 kts 273°
2026-05-05 00:52 40.14520 -75.79712 8261 ft 243 kts 273°
2026-05-05 00:52 40.14661 -75.81897 8020 ft 235 kts 273°
2026-05-05 00:52 40.14663 -75.83950 7996 ft 219 kts 256°
2026-05-05 00:53 40.13843 -75.85530 8008 ft 216 kts 217°
2026-05-05 00:53 40.12359 -75.85975 8012 ft 233 kts 178°
2026-05-05 00:53 40.10869 -75.84999 8034 ft 254 kts 139°
2026-05-05 00:53 40.10047 -75.82927 8044 ft 265 kts 103°
2026-05-05 00:54 40.09868 -75.80516 8045 ft 268 kts 93°
2026-05-05 00:54 40.09819 -75.78081 8037 ft 268 kts 92°
2026-05-05 00:54 40.09757 -75.75657 8037 ft 266 kts 93°
2026-05-05 00:54 40.09708 -75.73243 8035 ft 267 kts 89°
2026-05-05 00:55 40.10164 -75.70930 8014 ft 264 kts 54°
2026-05-05 00:55 40.11500 -75.69404 8033 ft 252 kts 15°
2026-05-05 00:55 40.13154 -75.69232 8046 ft 234 kts 336°
2026-05-05 00:55 40.14413 -75.70376 8043 ft 217 kts 297°
2026-05-05 00:56 40.14869 -75.72200 8057 ft 211 kts 276°
2026-05-05 00:56 40.15012 -75.74105 8044 ft 210 kts 273°
2026-05-05 00:56 40.15134 -75.76008 8042 ft 209 kts 273°
2026-05-05 00:56 40.15255 -75.77902 8035 ft 209 kts 273°
2026-05-05 00:57 40.15383 -75.79796 8026 ft 208 kts 273°
2026-05-05 00:57 40.15522 -75.81676 8030 ft 208 kts 273°
2026-05-05 00:57 40.15648 -75.83563 8018 ft 208 kts 270°
2026-05-05 00:57 40.15293 -75.85354 8019 ft 210 kts 235°
2026-05-05 00:58 40.14072 -75.86378 8029 ft 224 kts 197°
2026-05-05 00:58 40.12468 -75.86067 8035 ft 245 kts 157°
2026-05-05 00:58 40.11268 -75.84424 8034 ft 262 kts 118°
2026-05-05 00:58 40.10800 -75.82097 8053 ft 267 kts 104°
2026-05-05 00:59 40.10408 -75.79729 8042 ft 266 kts 105°
2026-05-05 00:59 40.10011 -75.77371 8035 ft 265 kts 105°
2026-05-05 00:59 40.09608 -75.75027 8041 ft 265 kts 105°
2026-05-05 00:59 40.09246 -75.72666 8029 ft 266 kts 97°
2026-05-05 01:00 40.09556 -75.70316 8022 ft 266 kts 59°
2026-05-05 01:00 40.10807 -75.68649 8024 ft 255 kts 20°
2026-05-05 01:00 40.12441 -75.68294 8043 ft 237 kts 341°
2026-05-05 01:00 40.13797 -75.69283 8046 ft 219 kts 302°
2026-05-05 01:01 40.14345 -75.71067 8058 ft 212 kts 276°
2026-05-05 01:01 40.14464 -75.72978 8048 ft 210 kts 271°
2026-05-05 01:01 40.14535 -75.74883 8036 ft 209 kts 271°
2026-05-05 01:01 40.14615 -75.76780 8045 ft 209 kts 271°
2026-05-05 01:02 40.14697 -75.78680 8047 ft 209 kts 271°
2026-05-05 01:02 40.14778 -75.80568 8031 ft 208 kts 271°
2026-05-05 01:02 40.14859 -75.82457 8030 ft 208 kts 271°
2026-05-05 01:02 40.14802 -75.84338 8005 ft 208 kts 252°
2026-05-05 01:03 40.13912 -75.85806 8025 ft 216 kts 213°
2026-05-05 01:03 40.12395 -75.86113 8042 ft 235 kts 174°
2026-05-05 01:03 40.10943 -75.85009 8042 ft 255 kts 135°
2026-05-05 01:03 40.10205 -75.82871 8052 ft 266 kts 102°
2026-05-05 01:04 40.09855 -75.80408 8063 ft 296 kts 104°
2026-05-05 01:04 40.08956 -75.74868 8049 ft 310 kts 103°
2026-05-05 01:04 40.08694 -75.72073 8043 ft 311 kts 95°
2026-05-05 01:05 40.08545 -75.69253 8044 ft 311 kts 95°
2026-05-05 01:05 40.08399 -75.66441 8042 ft 311 kts 95°
2026-05-05 01:05 40.08255 -75.63621 8041 ft 311 kts 95°
2026-05-05 01:05 40.08113 -75.60811 8041 ft 311 kts 95°
2026-05-05 01:06 40.07972 -75.57992 8040 ft 311 kts 95°
2026-05-05 01:06 40.07835 -75.55179 8042 ft 311 kts 95°
2026-05-05 01:06 40.07699 -75.52366 8053 ft 311 kts 95°
2026-05-05 01:06 40.07565 -75.49551 8052 ft 311 kts 95°
2026-05-05 01:07 40.07434 -75.46735 8047 ft 311 kts 95°
2026-05-05 01:07 40.07306 -75.43963 8048 ft 311 kts 95°
2026-05-05 01:07 40.07172 -75.41146 8038 ft 309 kts 95°
2026-05-05 01:07 40.07006 -75.38345 8036 ft 309 kts 95°
2026-05-05 01:08 40.06840 -75.35543 8039 ft 309 kts 95°
2026-05-05 01:08 40.06674 -75.32749 8028 ft 309 kts 95°
2026-05-05 01:08 40.06510 -75.29951 8033 ft 309 kts 95°
2026-05-05 01:08 40.06366 -75.27146 8028 ft 310 kts 91°
2026-05-05 01:09 40.06714 -75.24397 8026 ft 308 kts 70°
2026-05-05 01:09 40.07525 -75.21799 7730 ft 309 kts 63°
2026-05-05 01:09 40.08438 -75.19265 7441 ft 308 kts 63°
2026-05-05 01:09 40.09351 -75.16735 7153 ft 307 kts 63°
2026-05-05 01:10 40.10145 -75.14152 6844 ft 307 kts 77°
2026-05-05 01:10 40.10261 -75.11392 6563 ft 304 kts 94°
2026-05-05 01:10 40.10099 -75.08635 6281 ft 304 kts 96°
2026-05-05 01:10 40.09928 -75.05890 5976 ft 301 kts 96°
2026-05-05 01:11 40.09772 -75.03194 5668 ft 296 kts 96°
2026-05-05 01:11 40.09620 -75.00522 5363 ft 294 kts 96°
2026-05-05 01:11 40.09472 -74.97862 5044 ft 294 kts 96°
2026-05-05 01:11 40.09312 -74.95216 4746 ft 292 kts 99°
2026-05-05 01:12 40.08677 -74.92770 4404 ft 280 kts 129°
2026-05-05 01:12 40.07260 -74.91201 4118 ft 261 kts 158°
2026-05-05 01:12 40.05636 -74.90341 4054 ft 243 kts 166°
2026-05-05 01:12 40.04601 -74.89867 4046 ft 233 kts 166°
2026-05-05 01:13 40.03113 -74.89175 4038 ft 223 kts 166°
2026-05-05 01:13 40.01661 -74.88493 4037 ft 220 kts 166°
2026-05-05 01:13 40.00220 -74.87800 4045 ft 221 kts 166°
2026-05-05 01:13 39.98776 -74.87102 4039 ft 221 kts 166°
2026-05-05 01:14 39.97323 -74.86543 4025 ft 214 kts 182°
2026-05-05 01:14 39.95959 -74.87032 4062 ft 203 kts 216°
2026-05-05 01:14 39.94838 -74.88154 4013 ft 204 kts 222°
2026-05-05 01:14 39.93775 -74.89359 3924 ft 201 kts 224°
2026-05-05 01:15 39.92755 -74.90605 3810 ft 201 kts 227°
2026-05-05 01:15 39.92131 -74.92185 3761 ft 201 kts 258°
2026-05-05 01:15 39.92165 -74.93998 3624 ft 200 kts 272°
2026-05-05 01:15 39.92317 -74.95746 3525 ft 185 kts 272°
2026-05-05 01:16 39.92390 -74.97428 3441 ft 189 kts 263°
2026-05-05 01:16 39.92215 -74.99112 3490 ft 187 kts 256°
2026-05-05 01:16 39.91940 -75.00725 3198 ft 176 kts 252°
2026-05-05 01:16 39.91634 -75.02196 2982 ft 167 kts 251°
2026-05-05 01:17 39.91311 -75.03664 2746 ft 170 kts 251°
2026-05-05 01:17 39.90973 -75.05197 2565 ft 183 kts 250°
2026-05-05 01:17 39.90638 -75.06756 2373 ft 177 kts 250°
2026-05-05 01:17 39.90352 -75.08291 2046 ft 170 kts 250°
2026-05-05 01:18 39.90090 -75.09754 1722 ft 163 kts 250°
2026-05-05 01:18 39.89805 -75.11170 1493 ft 160 kts 248°
2026-05-05 01:18 39.89504 -75.12530 1491 ft 152 kts 249°
2026-05-05 01:18 39.89248 -75.13776 1327 ft 134 kts 249°
2026-05-05 01:19 39.89037 -75.14903 1098 ft 129 kts 250°
2026-05-05 01:19 39.88818 -75.16043 912 ft 133 kts 249°
2026-05-05 01:19 39.88560 -75.17238 774 ft 138 kts 249°
2026-05-05 01:19 39.88299 -75.18458 640 ft 139 kts 251°
2026-05-05 01:20 39.88052 -75.19660 487 ft 140 kts 253°
2026-05-05 01:20 39.87810 -75.20869 296 ft 137 kts 253°
2026-05-05 01:20 39.87567 -75.22057 111 ft 136 kts 251°
2026-05-05 01:20 39.87339 -75.23189 23 ft 110 kts 256°
2026-05-05 01:21 39.87192 -75.23910 27 ft 56 kts 257°
2026-05-05 01:21 39.87155 -75.24220 28 ft 28 kts 273°
2026-05-05 01:21 39.87180 -75.24396 28 ft 15 kts 285°
2026-05-05 01:21 39.87219 -75.24514 26 ft 12 kts 326°
2026-05-05 01:22 39.87275 -75.24465 27 ft 13 kts 75°
2026-05-05 01:22 39.87301 -75.24332 26 ft 17 kts 75°
2026-05-05 01:22 39.87326 -75.24212 26 ft 13 kts 75°
2026-05-05 01:22 39.87353 -75.24141 27 ft 8 kts 32°
2026-05-05 01:23 39.87396 -75.24110 26 ft 0 kts 27°